contact:dominique.lefevre@mio.osupytheas.fr, maurice.libes@osupytheas.fr, didier.mallarino@osupytheas.fr
Project:EMSO http://www.emso-fr.org/EMSO-France
Depth: 2436.0 m
Title:EMSO Ligure Ouest : Data MII capteur CSTAR
DateTime,Latitude,Longitude,Instrument_Serial,Reference_Counts,Signal_Counts,Corrected_Signal_raw_counts,Calculated_Beam_c_inverse_meters,Internal_thermistor_counts
DateTime,Latitude,Longitude,Instrument_Serial,Reference_Counts,Signal_Counts,Corrected_Signal_raw_counts,Calculated_Beam_c_inverse_meters,Internal_thermistor_counts
2021-09-23T00:00:27,42.805,6.029,CST-1368DR,5202,7048,14508,0.294,551
2021-09-23T00:03:28,42.805,6.029,CST-1368DR,5202,7048,14509,0.294,551
2021-09-23T00:06:30,42.805,6.029,CST-1368DR,5202,7048,14508,0.294,551
2021-09-23T00:09:31,42.805,6.029,CST-1368DR,5202,7047,14507,0.295,551
2021-09-23T00:12:33,42.805,6.029,CST-1368DR,5202,7048,14508,0.294,551
2021-09-23T00:15:34,42.805,6.029,CST-1368DR,5202,7048,14507,0.295,551
2021-09-23T00:18:36,42.805,6.029,CST-1368DR,5202,7048,14507,0.295,551
2021-09-23T00:21:38,42.805,6.029,CST-1368DR,5202,7046,14503,0.296,551
2021-09-23T00:24:39,42.805,6.029,CST-1368DR,5202,7048,14508,0.294,551
2021-09-23T00:27:41,42.805,6.029,CST-1368DR,5202,7046,14504,0.295,551
2021-09-23T00:30:42,42.805,6.029,CST-1368DR,5202,7048,14508,0.294,551
2021-09-23T00:33:44,42.805,6.029,CST-1368DR,5202,7048,14507,0.295,551
2021-09-23T00:36:46,42.805,6.029,CST-1368DR,5202,7047,14507,0.295,551
2021-09-23T00:39:47,42.805,6.029,CST-1368DR,5202,7044,14499,0.297,551
2021-09-23T00:42:49,42.805,6.029,CST-1368DR,5202,7047,14507,0.295,551
2021-09-23T00:45:50,42.805,6.029,CST-1368DR,5202,7045,14503,0.296,551
2021-09-23T00:48:52,42.805,6.029,CST-1368DR,5202,7048,14508,0.294,551
2021-09-23T00:51:53,42.805,6.029,CST-1368DR,5202,7046,14503,0.296,551
2021-09-23T00:54:55,42.805,6.029,CST-1368DR,5202,7048,14508,0.294,551
2021-09-23T00:57:57,42.805,6.029,CST-1368DR,5202,7048,14508,0.294,551
2021-09-23T01:00:58,42.805,6.029,CST-1368DR,5202,7048,14507,0.295,551
2021-09-23T01:04:00,42.805,6.029,CST-1368DR,5202,7047,14507,0.295,551
2021-09-23T01:07:01,42.805,6.029,CST-1368DR,5202,7047,14507,0.295,550
2021-09-23T01:10:03,42.805,6.029,CST-1368DR,5202,7047,14506,0.295,551
2021-09-23T01:13:04,42.805,6.029,CST-1368DR,5202,7047,14506,0.295,551
2021-09-23T01:16:06,42.805,6.029,CST-1368DR,5202,7042,14495,0.298,551
2021-09-23T01:19:08,42.805,6.029,CST-1368DR,5202,7043,14497,0.297,551
2021-09-23T01:22:09,42.805,6.029,CST-1368DR,5202,7046,14504,0.295,551
2021-09-23T01:25:11,42.805,6.029,CST-1368DR,5202,7046,14503,0.296,551
2021-09-23T01:28:12,42.805,6.029,CST-1368DR,5202,7048,14507,0.295,551
2021-09-23T01:31:14,42.805,6.029,CST-1368DR,5202,7048,14508,0.294,551
2021-09-23T01:34:16,42.805,6.029,CST-1368DR,5202,7049,14509,0.294,551
2021-09-23T01:37:17,42.805,6.029,CST-1368DR,5202,7048,14508,0.294,551
2021-09-23T01:40:19,42.805,6.029,CST-1368DR,5202,7048,14507,0.295,551
2021-09-23T01:43:20,42.805,6.029,CST-1368DR,5202,7047,14507,0.295,551
2021-09-23T01:46:22,42.805,6.029,CST-1368DR,5202,7049,14510,0.294,551
2021-09-23T01:49:23,42.805,6.029,CST-1368DR,5202,7048,14507,0.295,551
2021-09-23T01:52:25,42.805,6.029,CST-1368DR,5202,7048,14507,0.295,551
2021-09-23T01:55:27,42.805,6.029,CST-1368DR,5202,7041,14494,0.298,551
2021-09-23T01:58:28,42.805,6.029,CST-1368DR,5202,7048,14509,0.294,551
2021-09-23T02:01:30,42.805,6.029,CST-1368DR,5202,7048,14508,0.294,551
2021-09-23T02:04:31,42.805,6.029,CST-1368DR,5202,7048,14508,0.294,551
2021-09-23T02:07:33,42.805,6.029,CST-1368DR,5202,7049,14510,0.294,551
2021-09-23T02:10:35,42.805,6.029,CST-1368DR,5202,7049,14509,0.294,551
2021-09-23T02:13:36,42.805,6.029,CST-1368DR,5202,7048,14507,0.295,551
2021-09-23T02:16:38,42.805,6.029,CST-1368DR,5202,7049,14510,0.294,551
2021-09-23T02:19:39,42.805,6.029,CST-1368DR,5202,7048,14508,0.294,551
2021-09-23T02:22:41,42.805,6.029,CST-1368DR,5202,7048,14508,0.294,551
2021-09-23T02:25:42,42.805,6.029,CST-1368DR,5202,7049,14509,0.294,551
2021-09-23T02:28:44,42.805,6.029,CST-1368DR,5202,7048,14508,0.294,551
2021-09-23T02:31:46,42.805,6.029,CST-1368DR,5202,7047,14506,0.295,551
2021-09-23T02:34:47,42.805,6.029,CST-1368DR,5202,7045,14502,0.296,551
2021-09-23T02:37:49,42.805,6.029,CST-1368DR,5202,7047,14506,0.295,551
2021-09-23T02:40:50,42.805,6.029,CST-1368DR,5202,7048,14508,0.294,551
2021-09-23T02:43:52,42.805,6.029,CST-1368DR,5202,7048,14508,0.294,551
2021-09-23T02:46:54,42.805,6.029,CST-1368DR,5202,7048,14508,0.294,551
2021-09-23T02:49:55,42.805,6.029,CST-1368DR,5202,7045,14503,0.296,551
2021-09-23T02:52:57,42.805,6.029,CST-1368DR,5202,7047,14507,0.295,551
2021-09-23T02:55:58,42.805,6.029,CST-1368DR,5202,7047,14507,0.295,551
2021-09-23T02:59:00,42.805,6.029,CST-1368DR,5202,7043,14497,0.297,551
2021-09-23T03:02:01,42.805,6.029,CST-1368DR,5202,7046,14503,0.296,551
2021-09-23T03:05:03,42.805,6.029,CST-1368DR,5202,7048,14508,0.294,551
2021-09-23T03:08:05,42.805,6.029,CST-1368DR,5202,7048,14508,0.294,551
2021-09-23T03:11:06,42.805,6.029,CST-1368DR,5202,7048,14508,0.294,551
2021-09-23T03:14:08,42.805,6.029,CST-1368DR,5202,7048,14509,0.294,551
2021-09-23T03:17:09,42.805,6.029,CST-1368DR,5202,7048,14508,0.294,551
2021-09-23T03:20:11,42.805,6.029,CST-1368DR,5202,7047,14507,0.295,551
2021-09-23T03:23:12,42.805,6.029,CST-1368DR,5202,7045,14501,0.296,551
2021-09-23T03:26:14,42.805,6.029,CST-1368DR,5202,7049,14509,0.294,551
2021-09-23T03:29:16,42.805,6.029,CST-1368DR,5202,7048,14508,0.294,551
2021-09-23T03:32:17,42.805,6.029,CST-1368DR,5202,7048,14508,0.294,551
2021-09-23T03:35:19,42.805,6.029,CST-1368DR,5202,7048,14508,0.294,550
2021-09-23T03:38:20,42.805,6.029,CST-1368DR,5202,7048,14509,0.294,551
2021-09-23T03:41:22,42.805,6.029,CST-1368DR,5202,7049,14509,0.294,551
2021-09-23T03:44:24,42.805,6.029,CST-1368DR,5202,7047,14507,0.295,551
2021-09-23T03:47:25,42.805,6.029,CST-1368DR,5202,7048,14508,0.294,551
2021-09-23T03:50:27,42.805,6.029,CST-1368DR,5202,7039,14489,0.300,551
2021-09-23T03:53:28,42.805,6.029,CST-1368DR,5202,7049,14509,0.294,551
2021-09-23T03:56:30,42.805,6.029,CST-1368DR,5202,7047,14506,0.295,551
2021-09-23T03:59:31,42.805,6.029,CST-1368DR,5202,7047,14506,0.295,551
2021-09-23T04:02:33,42.805,6.029,CST-1368DR,5202,7047,14507,0.295,551
2021-09-23T04:05:35,42.805,6.029,CST-1368DR,5202,7047,14506,0.295,551
2021-09-23T04:08:36,42.805,6.029,CST-1368DR,5202,7048,14508,0.294,551
2021-09-23T04:11:38,42.805,6.029,CST-1368DR,5202,7048,14508,0.294,551
2021-09-23T04:14:39,42.805,6.029,CST-1368DR,5202,7048,14507,0.295,551
2021-09-23T04:17:41,42.805,6.029,CST-1368DR,5202,7047,14507,0.295,551
2021-09-23T04:20:43,42.805,6.029,CST-1368DR,5202,7048,14509,0.294,551
2021-09-23T04:23:44,42.805,6.029,CST-1368DR,5202,7047,14507,0.295,551
2021-09-23T04:26:46,42.805,6.029,CST-1368DR,5202,7046,14504,0.295,551
2021-09-23T04:29:47,42.805,6.029,CST-1368DR,5202,7048,14508,0.294,551
2021-09-23T04:32:49,42.805,6.029,CST-1368DR,5202,7046,14504,0.295,551
2021-09-23T04:35:50,42.805,6.029,CST-1368DR,5202,7046,14504,0.295,551
2021-09-23T04:38:52,42.805,6.029,CST-1368DR,5202,7047,14506,0.295,551
2021-09-23T04:41:54,42.805,6.029,CST-1368DR,5202,7045,14502,0.296,551
2021-09-23T04:44:55,42.805,6.029,CST-1368DR,5202,7047,14505,0.295,551
2021-09-23T04:47:57,42.805,6.029,CST-1368DR,5202,7045,14503,0.296,551
2021-09-23T04:50:58,42.805,6.029,CST-1368DR,5202,7048,14507,0.295,551
2021-09-23T04:54:00,42.805,6.029,CST-1368DR,5202,7048,14508,0.294,551
2021-09-23T04:57:01,42.805,6.029,CST-1368DR,5202,7047,14506,0.295,551
2021-09-23T05:00:03,42.805,6.029,CST-1368DR,5202,7047,14506,0.295,551
2021-09-23T05:03:05,42.805,6.029,CST-1368DR,5202,7046,14504,0.295,551
2021-09-23T05:06:06,42.805,6.029,CST-1368DR,5202,7045,14502,0.296,551
2021-09-23T05:09:08,42.805,6.029,CST-1368DR,5202,7047,14506,0.295,551
2021-09-23T05:12:09,42.805,6.029,CST-1368DR,5202,7048,14508,0.294,551
2021-09-23T05:15:11,42.805,6.029,CST-1368DR,5202,7047,14506,0.295,551
2021-09-23T05:18:13,42.805,6.029,CST-1368DR,5202,7046,14504,0.295,551
2021-09-23T05:21:14,42.805,6.029,CST-1368DR,5202,7047,14507,0.295,551
2021-09-23T05:24:16,42.805,6.029,CST-1368DR,5202,7047,14507,0.295,551
2021-09-23T05:27:17,42.805,6.029,CST-1368DR,5202,7047,14507,0.295,551
2021-09-23T05:30:19,42.805,6.029,CST-1368DR,5202,7047,14505,0.295,551
2021-09-23T05:33:20,42.805,6.029,CST-1368DR,5202,7047,14506,0.295,551
2021-09-23T05:36:22,42.805,6.029,CST-1368DR,5202,7046,14503,0.296,551
2021-09-23T05:39:24,42.805,6.029,CST-1368DR,5202,7048,14507,0.295,551
2021-09-23T05:42:25,42.805,6.029,CST-1368DR,5202,7047,14506,0.295,550
2021-09-23T05:45:27,42.805,6.029,CST-1368DR,5202,7047,14506,0.295,551
2021-09-23T05:48:28,42.805,6.029,CST-1368DR,5202,7048,14507,0.295,551
2021-09-23T05:51:30,42.805,6.029,CST-1368DR,5202,7046,14504,0.295,551
2021-09-23T05:54:31,42.805,6.029,CST-1368DR,5202,7044,14499,0.297,551
2021-09-23T05:57:33,42.805,6.029,CST-1368DR,5202,7047,14506,0.295,551
2021-09-23T06:00:35,42.805,6.029,CST-1368DR,5202,7045,14501,0.296,551
2021-09-23T06:03:36,42.805,6.029,CST-1368DR,5201,7045,14505,0.295,550
2021-09-23T06:06:38,42.805,6.029,CST-1368DR,5202,7045,14502,0.296,551
2021-09-23T06:09:39,42.805,6.029,CST-1368DR,5201,7046,14506,0.295,551
2021-09-23T06:12:41,42.805,6.029,CST-1368DR,5202,7047,14506,0.295,551
2021-09-23T06:15:43,42.805,6.029,CST-1368DR,5202,7046,14504,0.295,551
2021-09-23T06:18:44,42.805,6.029,CST-1368DR,5202,7046,14504,0.295,551
2021-09-23T06:21:46,42.805,6.029,CST-1368DR,5201,7046,14506,0.295,551
2021-09-23T06:24:47,42.805,6.029,CST-1368DR,5201,7046,14507,0.295,551
2021-09-23T06:27:49,42.805,6.029,CST-1368DR,5202,7046,14503,0.296,551
2021-09-23T06:30:50,42.805,6.029,CST-1368DR,5201,7046,14506,0.295,551
2021-09-23T06:33:52,42.805,6.029,CST-1368DR,5201,7046,14507,0.295,551
2021-09-23T06:36:54,42.805,6.029,CST-1368DR,5202,7047,14505,0.295,551
2021-09-23T06:39:55,42.805,6.029,CST-1368DR,5201,7047,14508,0.294,551
2021-09-23T06:42:57,42.805,6.029,CST-1368DR,5201,7045,14504,0.295,551
2021-09-23T06:45:58,42.805,6.029,CST-1368DR,5202,7047,14506,0.295,551
2021-09-23T06:49:00,42.805,6.029,CST-1368DR,5201,7046,14507,0.295,551
2021-09-23T06:52:02,42.805,6.029,CST-1368DR,5201,7047,14508,0.294,551
2021-09-23T06:55:03,42.805,6.029,CST-1368DR,5202,7048,14507,0.295,551
2021-09-23T06:58:05,42.805,6.029,CST-1368DR,5202,7047,14507,0.295,551
2021-09-23T07:01:06,42.805,6.029,CST-1368DR,5201,7047,14509,0.294,550
2021-09-23T07:04:08,42.805,6.029,CST-1368DR,5201,7046,14506,0.295,551
2021-09-23T07:07:09,42.805,6.029,CST-1368DR,5202,7047,14506,0.295,551
2021-09-23T07:10:11,42.805,6.029,CST-1368DR,5201,7046,14506,0.295,551
2021-09-23T07:13:13,42.805,6.029,CST-1368DR,5201,7047,14508,0.294,551
2021-09-23T07:16:14,42.805,6.029,CST-1368DR,5201,7045,14504,0.295,551
2021-09-23T07:19:16,42.805,6.029,CST-1368DR,5201,7045,14505,0.295,551
2021-09-23T07:22:17,42.805,6.029,CST-1368DR,5201,7045,14505,0.295,551
2021-09-23T07:25:19,42.805,6.029,CST-1368DR,5202,7047,14506,0.295,551
2021-09-23T07:28:20,42.805,6.029,CST-1368DR,5201,7043,14501,0.296,550
2021-09-23T07:31:22,42.805,6.029,CST-1368DR,5201,7046,14507,0.295,551
2021-09-23T07:34:24,42.805,6.029,CST-1368DR,5201,7044,14502,0.296,551
2021-09-23T07:37:25,42.805,6.029,CST-1368DR,5201,7046,14506,0.295,550
2021-09-23T07:40:27,42.805,6.029,CST-1368DR,5201,7045,14505,0.295,551
2021-09-23T07:43:28,42.805,6.029,CST-1368DR,5201,7047,14508,0.294,551
2021-09-23T07:46:30,42.805,6.029,CST-1368DR,5201,7046,14506,0.295,551
2021-09-23T07:49:32,42.805,6.029,CST-1368DR,5201,7046,14506,0.295,551
2021-09-23T07:52:33,42.805,6.029,CST-1368DR,5201,7046,14506,0.295,551
2021-09-23T07:55:35,42.805,6.029,CST-1368DR,5201,7047,14508,0.294,551
2021-09-23T07:58:36,42.805,6.029,CST-1368DR,5201,7045,14504,0.295,551
2021-09-23T08:01:38,42.805,6.029,CST-1368DR,5201,7046,14507,0.295,550
2021-09-23T08:04:39,42.805,6.029,CST-1368DR,5201,7047,14508,0.294,551
2021-09-23T08:07:41,42.805,6.029,CST-1368DR,5201,7047,14509,0.294,551
2021-09-23T08:10:43,42.805,6.029,CST-1368DR,5201,7046,14507,0.295,551
2021-09-23T08:13:44,42.805,6.029,CST-1368DR,5201,7047,14509,0.294,550
2021-09-23T08:16:46,42.805,6.029,CST-1368DR,5201,7047,14509,0.294,551
2021-09-23T08:19:47,42.805,6.029,CST-1368DR,5201,7045,14505,0.295,551
2021-09-23T08:22:49,42.805,6.029,CST-1368DR,5201,7047,14508,0.294,551
2021-09-23T08:25:50,42.805,6.029,CST-1368DR,5201,7044,14502,0.296,551
2021-09-23T08:28:52,42.805,6.029,CST-1368DR,5201,7046,14506,0.295,551
2021-09-23T08:31:54,42.805,6.029,CST-1368DR,5201,7046,14506,0.295,551
2021-09-23T08:34:55,42.805,6.029,CST-1368DR,5201,7047,14508,0.294,551
2021-09-23T08:37:57,42.805,6.029,CST-1368DR,5201,7047,14508,0.294,551
2021-09-23T08:40:58,42.805,6.029,CST-1368DR,5201,7048,14511,0.294,551
2021-09-23T08:44:00,42.805,6.029,CST-1368DR,5201,7047,14509,0.294,551
2021-09-23T08:47:02,42.805,6.029,CST-1368DR,5201,7046,14507,0.295,551
2021-09-23T08:50:03,42.805,6.029,CST-1368DR,5201,7047,14509,0.294,551
2021-09-23T08:53:05,42.805,6.029,CST-1368DR,5201,7047,14509,0.294,551
2021-09-23T08:56:06,42.805,6.029,CST-1368DR,5201,7046,14506,0.295,551
2021-09-23T08:59:08,42.805,6.029,CST-1368DR,5201,7046,14507,0.295,551
2021-09-23T09:02:09,42.805,6.029,CST-1368DR,5201,7046,14506,0.295,551
2021-09-23T09:05:11,42.805,6.029,CST-1368DR,5201,7047,14509,0.294,551
2021-09-23T09:08:13,42.805,6.029,CST-1368DR,5201,7047,14508,0.294,551
2021-09-23T09:11:14,42.805,6.029,CST-1368DR,5201,7045,14505,0.295,551
2021-09-23T09:14:16,42.805,6.029,CST-1368DR,5201,7045,14504,0.295,551
2021-09-23T09:17:17,42.805,6.029,CST-1368DR,5201,7046,14507,0.295,551
2021-09-23T09:20:19,42.805,6.029,CST-1368DR,5201,7045,14505,0.295,551
2021-09-23T09:23:21,42.805,6.029,CST-1368DR,5201,7045,14505,0.295,551
2021-09-23T09:26:22,42.805,6.029,CST-1368DR,5201,7042,14498,0.297,551
2021-09-23T09:29:24,42.805,6.029,CST-1368DR,5201,7044,14503,0.296,551
2021-09-23T09:32:25,42.805,6.029,CST-1368DR,5201,7046,14506,0.295,551
2021-09-23T09:35:27,42.805,6.029,CST-1368DR,5201,7046,14506,0.295,551
2021-09-23T09:38:28,42.805,6.029,CST-1368DR,5201,7042,14498,0.297,551
2021-09-23T09:41:30,42.805,6.029,CST-1368DR,5201,7045,14504,0.295,551
2021-09-23T09:44:32,42.805,6.029,CST-1368DR,5201,7044,14502,0.296,551
2021-09-23T09:47:33,42.805,6.029,CST-1368DR,5201,7045,14504,0.295,551
2021-09-23T09:50:35,42.805,6.029,CST-1368DR,5201,7040,14494,0.298,551
2021-09-23T09:53:36,42.805,6.029,CST-1368DR,5201,7046,14506,0.295,551
2021-09-23T09:56:38,42.805,6.029,CST-1368DR,5201,7045,14504,0.295,551
2021-09-23T09:59:39,42.805,6.029,CST-1368DR,5201,7044,14503,0.296,551
2021-09-23T10:02:41,42.805,6.029,CST-1368DR,5201,7045,14504,0.295,551
2021-09-23T10:05:43,42.805,6.029,CST-1368DR,5201,7044,14503,0.296,551
2021-09-23T10:08:44,42.805,6.029,CST-1368DR,5201,7044,14503,0.296,551
2021-09-23T10:11:46,42.805,6.029,CST-1368DR,5201,7043,14501,0.296,551
2021-09-23T10:14:47,42.805,6.029,CST-1368DR,5201,7044,14503,0.296,551
2021-09-23T10:17:49,42.805,6.029,CST-1368DR,5201,7045,14505,0.295,551
2021-09-23T10:20:51,42.805,6.029,CST-1368DR,5201,7046,14506,0.295,551
2021-09-23T10:23:52,42.805,6.029,CST-1368DR,5201,7043,14501,0.296,551
2021-09-23T10:26:54,42.805,6.029,CST-1368DR,5201,7044,14502,0.296,551
2021-09-23T10:29:55,42.805,6.029,CST-1368DR,5201,7043,14500,0.297,551
2021-09-23T10:32:57,42.805,6.029,CST-1368DR,5201,7044,14503,0.296,551
2021-09-23T10:35:58,42.805,6.029,CST-1368DR,5201,7046,14506,0.295,551
2021-09-23T10:39:00,42.805,6.029,CST-1368DR,5201,7045,14504,0.295,551
2021-09-23T10:42:02,42.805,6.029,CST-1368DR,5201,7045,14505,0.295,551
2021-09-23T10:45:03,42.805,6.029,CST-1368DR,5201,7045,14504,0.295,551
2021-09-23T10:48:05,42.805,6.029,CST-1368DR,5200,7044,14505,0.295,551
2021-09-23T10:51:06,42.805,6.029,CST-1368DR,5200,7044,14505,0.295,551
2021-09-23T10:54:08,42.805,6.029,CST-1368DR,5200,7043,14503,0.296,551
2021-09-23T10:57:10,42.805,6.029,CST-1368DR,5200,7042,14502,0.296,551
2021-09-23T11:00:11,42.805,6.029,CST-1368DR,5200,7044,14505,0.295,551
2021-09-23T11:03:13,42.805,6.029,CST-1368DR,5200,7044,14506,0.295,551
2021-09-23T11:06:14,42.805,6.029,CST-1368DR,5200,7043,14504,0.295,551
2021-09-23T11:09:16,42.805,6.029,CST-1368DR,5200,7044,14504,0.295,550
2021-09-23T11:12:17,42.805,6.029,CST-1368DR,5200,7044,14504,0.295,551
2021-09-23T11:15:19,42.805,6.029,CST-1368DR,5200,7045,14506,0.295,551
2021-09-23T11:18:21,42.805,6.029,CST-1368DR,5200,7042,14502,0.296,551
2021-09-23T11:21:22,42.805,6.029,CST-1368DR,5200,7041,14499,0.297,551
2021-09-23T11:24:24,42.805,6.029,CST-1368DR,5200,7045,14507,0.295,551
2021-09-23T11:27:25,42.805,6.029,CST-1368DR,5201,7044,14503,0.296,551
2021-09-23T11:30:27,42.805,6.029,CST-1368DR,5201,7045,14505,0.295,551
2021-09-23T11:33:28,42.805,6.029,CST-1368DR,5201,7045,14504,0.295,551
2021-09-23T11:36:30,42.805,6.029,CST-1368DR,5200,7042,14501,0.296,551
2021-09-23T11:39:32,42.805,6.029,CST-1368DR,5200,7044,14505,0.295,551
2021-09-23T11:42:33,42.805,6.029,CST-1368DR,5200,7042,14501,0.296,551
2021-09-23T11:45:35,42.805,6.029,CST-1368DR,5200,7044,14505,0.295,551
2021-09-23T11:48:36,42.805,6.029,CST-1368DR,5200,7043,14502,0.296,551
2021-09-23T11:51:38,42.805,6.029,CST-1368DR,5200,7042,14502,0.296,551
2021-09-23T11:54:40,42.805,6.029,CST-1368DR,5200,7041,14498,0.297,551
2021-09-23T11:57:41,42.805,6.029,CST-1368DR,5200,7042,14501,0.296,551
2021-09-23T12:00:43,42.805,6.029,CST-1368DR,5200,7044,14506,0.295,551
2021-09-23T12:03:44,42.805,6.029,CST-1368DR,5200,7044,14505,0.295,550
2021-09-23T12:06:46,42.805,6.029,CST-1368DR,5200,7044,14504,0.295,551
2021-09-23T12:09:47,42.805,6.029,CST-1368DR,5200,7044,14504,0.295,550
2021-09-23T12:12:49,42.805,6.029,CST-1368DR,5200,7044,14505,0.295,551
2021-09-23T12:15:51,42.805,6.029,CST-1368DR,5200,7042,14502,0.296,551
2021-09-23T12:18:52,42.805,6.029,CST-1368DR,5200,7041,14500,0.297,551
2021-09-23T12:21:54,42.805,6.029,CST-1368DR,5200,7042,14502,0.296,551
2021-09-23T12:24:55,42.805,6.029,CST-1368DR,5200,7044,14505,0.295,551
2021-09-23T12:27:57,42.805,6.029,CST-1368DR,5200,7044,14506,0.295,550
2021-09-23T12:30:59,42.805,6.029,CST-1368DR,5200,7044,14506,0.295,551
2021-09-23T12:34:00,42.805,6.029,CST-1368DR,5200,7045,14507,0.295,550
2021-09-23T12:37:02,42.805,6.029,CST-1368DR,5200,7043,14502,0.296,551
2021-09-23T12:40:03,42.805,6.029,CST-1368DR,5200,7044,14504,0.295,551
2021-09-23T12:43:05,42.805,6.029,CST-1368DR,5200,7044,14504,0.295,551
2021-09-23T12:46:06,42.805,6.029,CST-1368DR,5200,7044,14504,0.295,551
2021-09-23T12:49:08,42.805,6.029,CST-1368DR,5200,7042,14501,0.296,551
2021-09-23T12:52:10,42.805,6.029,CST-1368DR,5200,7041,14500,0.297,551
2021-09-23T12:55:11,42.805,6.029,CST-1368DR,5200,7039,14495,0.298,551
2021-09-23T12:58:13,42.805,6.029,CST-1368DR,5200,7043,14504,0.295,551
2021-09-23T13:01:14,42.805,6.029,CST-1368DR,5200,7040,14496,0.298,551
2021-09-23T13:04:16,42.805,6.029,CST-1368DR,5200,7043,14504,0.295,551
2021-09-23T13:07:17,42.805,6.029,CST-1368DR,5200,7041,14498,0.297,551
2021-09-23T13:10:19,42.805,6.029,CST-1368DR,5200,7045,14507,0.295,551
2021-09-23T13:13:21,42.805,6.029,CST-1368DR,5200,7038,14493,0.299,551
2021-09-23T13:16:22,42.805,6.029,CST-1368DR,5200,7040,14497,0.297,551
2021-09-23T13:19:24,42.805,6.029,CST-1368DR,5200,7044,14504,0.295,551
2021-09-23T13:22:25,42.805,6.029,CST-1368DR,5200,7042,14502,0.296,550
2021-09-23T13:25:27,42.805,6.029,CST-1368DR,5200,7042,14502,0.296,551
2021-09-23T13:28:29,42.805,6.029,CST-1368DR,5200,7042,14501,0.296,551
2021-09-23T13:31:30,42.805,6.029,CST-1368DR,5200,7042,14502,0.296,551
2021-09-23T13:34:32,42.805,6.029,CST-1368DR,5200,7044,14505,0.295,551
2021-09-23T13:37:33,42.805,6.029,CST-1368DR,5200,7043,14504,0.295,551
2021-09-23T13:40:35,42.805,6.029,CST-1368DR,5200,7043,14504,0.295,551
2021-09-23T13:43:36,42.805,6.029,CST-1368DR,5199,7044,14507,0.295,551
2021-09-23T13:46:38,42.805,6.029,CST-1368DR,5200,7042,14500,0.297,551
2021-09-23T13:49:40,42.805,6.029,CST-1368DR,5199,7044,14507,0.295,551
2021-09-23T13:52:41,42.805,6.029,CST-1368DR,5200,7043,14503,0.296,550
2021-09-23T13:55:43,42.805,6.029,CST-1368DR,5199,7041,14501,0.296,550
2021-09-23T13:58:44,42.805,6.029,CST-1368DR,5199,7041,14501,0.296,551
2021-09-23T14:01:46,42.805,6.029,CST-1368DR,5199,7037,14494,0.298,551
2021-09-23T14:04:47,42.805,6.029,CST-1368DR,5200,7033,14482,0.302,551
2021-09-23T14:07:49,42.805,6.029,CST-1368DR,5200,7040,14496,0.298,551
2021-09-23T14:10:51,42.805,6.029,CST-1368DR,5200,7044,14504,0.295,551
2021-09-23T14:13:52,42.805,6.029,CST-1368DR,5200,7045,14507,0.295,551
2021-09-23T14:16:54,42.805,6.029,CST-1368DR,5200,7044,14505,0.295,551
2021-09-23T14:19:55,42.805,6.029,CST-1368DR,5200,7046,14509,0.294,551
2021-09-23T14:22:57,42.805,6.029,CST-1368DR,5200,7044,14505,0.295,551
2021-09-23T14:25:59,42.805,6.029,CST-1368DR,5200,7042,14502,0.296,551
2021-09-23T14:29:00,42.805,6.029,CST-1368DR,5200,7045,14508,0.294,551
2021-09-23T14:32:02,42.805,6.029,CST-1368DR,5200,7046,14508,0.294,551
2021-09-23T14:35:03,42.805,6.029,CST-1368DR,5200,7046,14508,0.294,551
2021-09-23T14:38:05,42.805,6.029,CST-1368DR,5200,7043,14504,0.295,551
2021-09-23T14:41:06,42.805,6.029,CST-1368DR,5201,7042,14499,0.297,551
2021-09-23T14:44:08,42.805,6.029,CST-1368DR,5201,7045,14505,0.295,550
2021-09-23T14:47:10,42.805,6.029,CST-1368DR,5201,7045,14505,0.295,551
2021-09-23T14:50:11,42.805,6.029,CST-1368DR,5201,7045,14504,0.295,551
2021-09-23T14:53:13,42.805,6.029,CST-1368DR,5201,7045,14505,0.295,551
2021-09-23T14:56:14,42.805,6.029,CST-1368DR,5201,7044,14502,0.296,551
2021-09-23T14:59:16,42.805,6.029,CST-1368DR,5201,7041,14496,0.298,551
2021-09-23T15:02:18,42.805,6.029,CST-1368DR,5201,7044,14503,0.296,551
2021-09-23T15:05:19,42.805,6.029,CST-1368DR,5201,7045,14504,0.295,551
2021-09-23T15:08:21,42.805,6.029,CST-1368DR,5201,7037,14489,0.300,551
2021-09-23T15:11:22,42.805,6.029,CST-1368DR,5201,7042,14498,0.297,551
2021-09-23T15:14:24,42.805,6.029,CST-1368DR,5201,7045,14505,0.295,551
2021-09-23T15:17:25,42.805,6.029,CST-1368DR,5201,7046,14506,0.295,551
2021-09-23T15:20:27,42.805,6.029,CST-1368DR,5201,7045,14504,0.295,551
2021-09-23T15:23:29,42.805,6.029,CST-1368DR,5201,7045,14505,0.295,550
2021-09-23T15:26:30,42.805,6.029,CST-1368DR,5201,7043,14501,0.296,551
2021-09-23T15:29:32,42.805,6.029,CST-1368DR,5201,7045,14504,0.295,551
2021-09-23T15:32:33,42.805,6.029,CST-1368DR,5201,7044,14503,0.296,551
2021-09-23T15:35:35,42.805,6.029,CST-1368DR,5201,7043,14500,0.297,551
2021-09-23T15:38:36,42.805,6.029,CST-1368DR,5201,7044,14502,0.296,550
2021-09-23T15:41:38,42.805,6.029,CST-1368DR,5201,7044,14502,0.296,551
2021-09-23T15:44:40,42.805,6.029,CST-1368DR,5201,7045,14505,0.295,551
2021-09-23T15:47:41,42.805,6.029,CST-1368DR,5201,7043,14500,0.297,551
2021-09-23T15:50:43,42.805,6.029,CST-1368DR,5201,7045,14504,0.295,551
2021-09-23T15:53:44,42.805,6.029,CST-1368DR,5201,7044,14502,0.296,551
2021-09-23T15:56:46,42.805,6.029,CST-1368DR,5201,7045,14505,0.295,551
2021-09-23T15:59:48,42.805,6.029,CST-1368DR,5201,7042,14498,0.297,551
2021-09-23T16:02:49,42.805,6.029,CST-1368DR,5201,7045,14505,0.295,551
2021-09-23T16:05:51,42.805,6.029,CST-1368DR,5201,7044,14503,0.296,551
2021-09-23T16:08:52,42.805,6.029,CST-1368DR,5201,7045,14504,0.295,551
2021-09-23T16:11:54,42.805,6.029,CST-1368DR,5201,7043,14500,0.297,551
2021-09-23T16:14:55,42.805,6.029,CST-1368DR,5201,7044,14503,0.296,551
2021-09-23T16:17:57,42.805,6.029,CST-1368DR,5201,7045,14505,0.295,551
2021-09-23T16:20:59,42.805,6.029,CST-1368DR,5201,7044,14502,0.296,551
2021-09-23T16:24:00,42.805,6.029,CST-1368DR,5201,7045,14505,0.295,551
2021-09-23T16:27:02,42.805,6.029,CST-1368DR,5201,7044,14503,0.296,551
2021-09-23T16:30:03,42.805,6.029,CST-1368DR,5201,7045,14504,0.295,551
2021-09-23T16:33:05,42.805,6.029,CST-1368DR,5201,7044,14503,0.296,551
2021-09-23T16:36:07,42.805,6.029,CST-1368DR,5201,7045,14505,0.295,551
2021-09-23T16:39:08,42.805,6.029,CST-1368DR,5201,7045,14505,0.295,551
2021-09-23T16:42:10,42.805,6.029,CST-1368DR,5201,7046,14506,0.295,551
2021-09-23T16:45:11,42.805,6.029,CST-1368DR,5201,7044,14502,0.296,551
2021-09-23T16:48:13,42.805,6.029,CST-1368DR,5201,7044,14502,0.296,551
2021-09-23T16:51:14,42.805,6.029,CST-1368DR,5201,7044,14502,0.296,551